Location: *
(43.4667°N, 11.6833°E)
Time: 15:10:33
(UTC+00:00)

Cosmos 2369 Rocket - Pass Details

Date: 19 July 2019
Orbit: 827 x 854 km, 71.0° (Epoch: 22 August)

Event Time Altitude Azimuth Distance (km) Brightness Sun altitude
Rises 23:31:41 0° 339° (NNW) 3,433 6.4 -25.7°
Reaches altitude 10° 23:34:17 10° 347° (NNW) 2,492 5.6 -25.7°
Maximum altitude 23:39:43 43° 58° (ENE) 1,182 3.1 -25.6°
Enters shadow 23:42:15 28° 111° (ESE) 1,559 3.4 -25.6°
